Theta_e
311 313 314 314 316 319 323 310 321 319 322 316 308 314 313 314 317 316 317 317 318 319 318 320 320 320 317 313 315 318 315 315 318 316 314 314 315 316 315 319 318 319 320 318
311 312 314 314 316 319 320 316 317 316 316 316 311 315 317 316 317 316 317 318 317 316 318 319 319 318 315 314 316 317 315 315 314 310 314 313 318 316 314 313 313 319 320 317
311 313 314 314 317 320 316 312 318 315 311 310 315 316 317 319 315 315 315 316 316 316 317 317 319 319 317 315 315 313 314 314 313 313 311 312 316 316 314 317 320 317 318 316
311 313 314 314 317 318 315 309 314 312 314 316 314 315 316 318 318 315 315 317 316 317 316 318 319 318 316 314 314 314 315 318 315 314 314 314 315 316 316 317 317 319 317 316
312 313 314 315 317 319 315 314 315 309 310 313 314 312 317 318 317 316 318 318 316 315 316 315 318 318 316 316 315 315 312 316 314 315 313 312 314 314 314 315 316 316 316 317
313 314 314 317 318 319 315 313 310 313 306 307 312 312 316 317 316 315 315 315 315 313 316 315 314 313 313 314 315 314 314 314 313 315 310 311 313 310 313 314 313 315 315 313
313 314 314 318 318 318 318 314 308 307 310 306 311 316 315 315 315 316 314 312 313 312 310 309 308 305 306 309 311 311 309 310 310 316 310 318 313 310 312 313 312 311 310 310
314 314 314 317 318 319 317 313 309 306 306 307 314 314 314 313 312 314 315 315 310 308 309 311 310 310 305 306 308 310 309 309 313 315 315 314 314 312 311 313 313 310 310 312
314 314 314 314 318 318 316 314 311 306 306 311 313 314 312 311 310 312 314 311 308 306 305 309 313 313 309 313 310 306 306 304 313 313 317 318 313 308 312 311 314 309 312 311
314 314 314 314 317 318 317 316 316 310 307 307 311 313 314 309 309 310 307 313 310 306 307 311 313 316 308 314 308 304 308 309 314 314 313 314 310 308 307 314 315 311 311 310
314 314 314 315 314 317 317 316 315 313 305 309 312 312 311 311 310 313 310 312 308 307 310 313 310 309 310 311 309 308 310 310 309 308 312 314 306 309 312 312 309 310 309 309
314 314 314 315 315 315 316 317 316 316 311 310 314 316 315 313 311 310 307 311 309 309 308 306 304 308 302 306 316 306 313 311 313 311 313 308 306 309 309 308 308 307 307 302
314 314 314 315 315 315 315 315 315 314 301 307 310 312 313 316 316 314 313 304 308 307 305 305 305 311 306 313 309 311 309 307 311 310 312 311 310 311 309 307 304 302 301 299
314 314 314 314 315 315 315 315 314 313 304 304 309 309 310 313 314 316 315 311 307 303 303 302 305 310 309 309 313 312 312 311 312 312 312 312 310 309 305 301 299 298 297 298
314 314 314 315 315 315 315 315 314 314 312 306 305 308 309 310 312 314 314 311 308 308 305 304 309 305 308 307 307 310 311 313 313 314 312 313 308 303 300 298 297 297 298 299
314 314 314 315 315 314 315 310 314 314 314 304 306 305 305 306 308 310 310 310 308 308 307 305 306 308 309 309 310 310 310 311 311 313 310 305 302 299 298 297 298 296 296 294
313 314 314 315 315 314 313 312 310 313 314 303 308 306 300 302 303 303 304 307 310 310 306 304 306 306 309 305 312 311 308 306 302 303 304 303 301 300 298 295 294 294 293 292
314 314 314 314 313 313 311 311 311 313 312 304 306 307 303 302 301 303 300 302 302 303 306 301 305 304 303 310 305 300 301 297 296 296 297 297 296 295 296 295 295 294 294 293
313 313 312 308 309 306 307 310 312 311 308 304 302 308 310 302 302 300 300 300 305 300 303 303 305 305 309 301 299 298 298 299 296 296 296 296 295 295 295 295 294 294 294 293
311 309 305 299 301 304 306 305 301 298 296 296 303 300 307 306 300 301 303 299 304 307 304 301 304 306 297 297 297 296 296 297 297 296 295 295 294 294 294 293 292 292 292 292
305 298 297 300 302 302 298 301 302 299 301 297 299 299 304 300 305 305 300 304 302 305 300 305 306 305 298 296 296 295 295 295 296 296 295 294 293 292 292 292 291 291 290 290
302 300 300 300 298 298 301 302 299 301 304 299 300 300 300 298 299 302 299 304 301 303 296 301 301 298 297 296 296 295 294 294 293 292 291 291 290 291 290 290 290 289 289 288
302 299 296 297 296 304 304 304 300 301 298 298 299 300 297 297 297 299 301 301 300 295 297 299 297 296 297 297 296 293 292 292 290 291 290 290 290 291 290 288 289 288 287 287
295 300 301 299 300 297 296 296 297 296 297 298 298 297 298 294 298 296 299 296 295 299 297 297 296 297 297 295 292 292 292 289 288 289 290 290 289 289 289 288 288 287 286 287
291 293 297 295 293 294 295 296 297 295 295 296 296 294 293 294 295 295 295 297 297 297 296 294 296 294 293 292 292 292 289 288 287 290 289 289 289 288 287 289 289 287 287 287
289 289 292 292 295 295 296 297 297 294 293 292 291 290 294 294 293 295 296 295 294 293 290 291 292 292 292 291 291 290 290 289 289 289 289 289 289 288 288 288 287 288 288 287
288 289 288 288 288 293 291 295 295 293 295 293 289 290 292 288 290 292 292 291 291 290 290 289 290 291 291 290 289 289 289 289 289 289 289 289 289 288 287 286 288 288 287 287
Wind_Speed
9 12 14 16 15 3 5 4 3 4 3 4 1 3 5 2 1 4 3 4 3 3 3 3 3 3 1 4 0 2 1 2 2 1 1 0 2 2 3 2 2 1 1 7
8 11 14 16 16 3 3 3 1 4 2 3 1 1 3 3 2 4 2 3 3 3 3 4 2 3 1 4 3 1 2 2 3 2 3 2 3 1 3 4 2 6 3 6
7 10 13 15 15 8 2 3 2 4 4 1 6 5 2 4 3 4 5 4 4 4 4 5 3 2 2 3 2 6 4 2 4 4 4 1 5 4 4 4 3 4 12 17
4 8 11 13 12 8 2 3 1 1 1 2 4 3 3 4 3 3 4 4 3 4 3 2 2 1 2 2 1 2 2 2 3 5 10 4 8 12 11 13 13 8 16 16
3 7 10 11 10 6 4 4 4 3 2 2 4 4 2 4 3 2 2 6 2 3 4 3 4 3 2 3 2 2 2 1 1 4 5 4 8 14 14 13 14 13 18 22
1 5 9 10 9 4 4 3 3 4 4 2 4 2 4 5 5 5 2 8 5 4 4 3 2 2 3 1 3 3 1 3 2 4 4 8 7 4 4 3 6 5 7 10
1 3 7 9 9 4 4 3 5 4 1 2 3 3 3 4 2 6 3 3 5 2 4 4 4 6 5 3 3 0 4 4 2 3 4 2 2 2 6 6 15 9 11 10
3 2 5 8 10 6 6 5 3 3 2 1 2 5 5 5 5 4 3 3 2 5 5 3 4 4 5 2 6 3 2 4 2 2 3 7 10 4 1 5 9 3 3 1
5 2 4 6 7 7 11 12 7 5 6 4 3 4 3 4 3 3 3 3 4 5 3 3 2 2 3 3 1 5 4 4 1 2 3 5 4 2 1 3 8 2 1 9
7 4 4 5 7 7 5 8 6 4 4 3 3 3 4 4 3 3 1 3 2 3 2 2 3 3 1 2 3 3 0 1 5 7 6 8 7 4 1 1 5 4 3 8
9 6 4 5 6 5 5 9 9 3 3 2 3 3 4 3 2 4 4 3 2 3 3 3 3 3 4 1 2 4 4 4 4 2 4 7 4 1 3 3 5 11 10 9
11 8 5 4 5 5 5 5 7 8 8 3 3 3 3 2 6 5 0 3 4 4 4 2 3 3 1 3 3 0 4 6 3 9 7 3 2 5 6 6 8 4 3 10
12 10 8 5 4 5 5 8 6 5 3 3 2 1 2 5 4 2 4 2 3 3 1 4 2 4 4 4 6 3 3 3 4 2 7 8 10 12 5 7 10 11 9 6
15 12 9 7 4 4 5 5 7 7 7 3 3 3 0 3 6 8 3 8 8 7 2 2 3 2 4 4 3 5 6 3 4 8 14 14 7 5 7 9 9 7 1 1
17 14 11 9 7 4 4 5 4 4 3 4 3 8 2 4 4 8 8 14 5 2 2 2 3 1 2 1 0 4 5 6 4 6 11 11 3 6 6 7 3 2 4 9
20 17 15 12 10 8 4 3 7 8 4 4 1 3 4 4 3 3 5 9 2 3 3 3 2 2 3 2 3 4 11 8 10 10 4 5 9 7 3 2 3 7 9 10
23 20 18 15 13 12 4 3 2 13 6 3 2 3 2 2 4 4 3 2 1 2 2 3 3 2 4 2 2 1 6 8 8 6 8 6 4 3 2 4 9 13 12 12
24 22 18 16 17 15 7 5 10 16 6 4 2 3 2 1 1 1 2 1 1 1 1 1 2 1 1 3 3 7 5 10 12 13 14 11 6 3 5 9 13 13 12 13
24 20 20 12 6 5 5 13 19 9 4 3 3 4 3 2 1 1 1 0 1 1 1 1 2 2 4 1 3 4 6 5 8 6 6 3 2 6 8 10 11 12 13 16
27 19 6 1 2 16 16 4 2 3 2 3 2 1 2 1 1 1 2 2 1 2 1 2 2 1 4 5 7 7 6 6 4 2 4 4 7 8 9 10 13 14 17 20
7 4 2 9 10 3 4 2 2 2 1 0 1 1 2 3 2 2 1 1 1 2 1 2 2 2 4 5 4 3 3 2 2 1 3 6 7 9 10 11 14 16 18 18
8 18 11 5 3 2 3 2 2 2 3 1 2 2 2 1 1 2 0 2 1 3 1 1 2 0 7 6 4 3 2 1 4 6 8 10 11 12 12 14 16 19 24 28
7 5 3 2 1 3 4 5 1 3 3 3 2 2 1 1 3 2 1 2 2 0 1 3 1 4 6 5 2 1 2 6 9 10 13 15 17 21 20 18 24 25 23 27
3 2 4 1 2 1 2 2 3 2 3 4 2 3 1 1 2 1 2 1 1 1 2 4 2 5 5 3 2 2 4 11 11 13 15 16 19 21 25 25 25 24 23 28
3 2 2 1 1 3 2 1 2 2 3 3 3 3 2 1 2 1 3 2 2 4 3 2 3 3 1 3 3 5 5 11 11 13 14 19 22 20 23 27 25 25 26 25
3 4 4 1 2 2 1 1 2 1 3 2 3 3 2 1 2 2 4 4 6 3 2 2 2 2 3 4 7 13 15 15 15 15 17 18 20 20 20 27 27 23 24 26
4 2 2 2 2 3 2 1 2 5 2 2 2 3 3 2 2 2 4 4 3 3 2 2 3 4 5 10 13 16 17 15 15 17 19 19 21 21 20 16 23 24 23 24
Wind_Direction
2 8 15 17 18 160 180 104 78 358 142 54 23 121 151 160 78 37 71 88 90 100 81 73 93 123 81 330 267 45 1 130 298 110 117 52 116 117 94 113 198 188 235 270
356 4 10 13 12 46 156 96 144 16 129 123 19 215 67 83 91 31 82 85 57 52 96 101 85 93 25 8 62 123 181 29 348 44 70 19 63 94 109 97 89 226 210 264
352 2 7 10 13 31 70 93 68 346 47 58 124 123 104 107 44 68 68 103 80 86 57 25 123 109 61 16 78 56 89 126 168 224 250 202 264 218 192 177 230 242 241 272
353 0 7 7 10 14 90 38 189 189 204 6 105 100 120 115 106 79 42 54 79 129 106 70 95 107 1 52 12 58 91 222 203 266 274 276 268 260 235 229 238 242 274 279
356 5 8 3 7 5 83 126 133 40 56 3 90 14 124 123 121 82 46 116 127 93 125 139 185 152 210 230 38 76 17 234 116 278 300 291 282 267 252 236 248 253 261 267
15 14 13 8 7 12 96 118 103 102 326 32 83 207 155 160 124 34 89 138 104 79 157 149 101 103 87 112 158 155 143 136 106 268 337 318 287 238 178 197 196 220 266 287
164 32 22 23 22 48 98 120 114 85 255 92 148 145 94 130 92 133 111 90 102 185 105 94 55 53 51 67 39 111 132 105 167 283 339 238 251 266 236 254 276 258 266 279
173 69 36 35 37 50 109 115 112 114 104 231 40 100 109 92 51 69 103 38 44 117 56 59 24 348 20 33 42 58 128 123 177 246 224 308 299 287 180 182 280 251 236 255
172 121 57 46 50 67 93 75 80 99 119 240 142 119 136 135 111 36 67 52 38 62 76 68 139 233 236 288 159 47 63 63 147 156 248 268 249 281 83 152 295 101 100 320
172 144 95 67 66 73 93 69 64 89 105 261 136 154 164 123 96 111 318 157 62 32 82 113 175 237 256 244 181 223 45 241 239 246 259 270 259 273 13 36 312 179 250 290
185 163 128 99 80 79 103 80 58 74 98 273 186 141 124 99 104 140 177 84 3 78 96 155 202 197 220 192 231 187 209 174 213 179 236 279 190 84 212 291 323 307 282 290
189 179 151 111 93 94 107 99 83 74 84 154 159 148 106 127 173 133 148 159 161 164 97 185 128 201 183 180 239 125 266 195 199 192 226 245 232 248 269 307 295 326 347 66
195 188 173 149 111 88 105 114 109 85 73 21 82 134 159 211 213 172 123 278 153 162 109 148 150 214 134 182 227 227 267 184 222 259 247 266 287 290 23 65 88 77 71 78
201 199 189 172 151 124 118 118 110 89 96 108 277 338 238 186 210 205 180 137 112 101 99 129 154 184 184 203 234 218 225 128 236 259 281 287 277 61 110 91 81 79 108 329
203 202 200 189 180 158 127 123 131 122 122 176 261 308 279 255 208 189 179 149 122 138 106 130 214 207 153 205 80 228 171 212 212 261 275 300 359 107 94 104 142 208 278 288
205 200 198 196 182 166 138 19 210 186 132 94 17 315 5 357 28 186 169 171 129 149 157 203 219 243 164 206 229 245 219 238 262 281 40 86 108 102 99 227 288 304 301 315
206 205 206 203 196 182 172 183 150 167 132 85 334 307 304 12 49 39 40 86 153 153 185 193 191 201 167 211 253 215 355 27 38 26 124 98 78 123 228 307 315 310 311 310
204 207 202 200 193 196 197 202 140 151 110 89 153 258 8 164 92 94 1 105 17 2 235 38 175 40 161 237 54 355 17 87 66 64 70 92 103 43 306 304 318 313 307 301
204 189 180 158 173 168 170 169 165 171 122 182 147 158 218 100 82 86 70 120 75 0 255 249 130 192 211 14 42 51 36 113 122 85 78 76 343 304 310 311 317 313 312 307
184 151 133 100 154 127 122 98 69 23 6 25 143 83 151 215 98 13 97 33 163 220 219 304 227 228 95 112 120 116 122 137 178 67 3 342 320 317 310 306 309 304 300 302
125 97 88 113 128 118 33 59 111 104 173 178 49 42 114 331 118 129 18 171 146 236 258 263 234 220 157 166 158 172 118 83 48 269 287 308 304 305 313 316 312 303 301 297
118 107 106 85 49 63 126 125 123 165 153 137 129 100 75 19 37 106 92 165 134 249 0 267 259 29 143 170 192 197 172 298 299 299 299 309 313 313 307 306 308 308 308 308
106 72 89 132 46 128 178 151 161 151 164 157 144 102 97 68 41 79 128 194 215 358 203 236 238 161 172 193 196 231 306 299 308 309 313 317 316 318 313 304 309 310 303 305
66 84 99 59 129 133 159 147 146 152 135 132 119 99 109 59 97 114 134 102 192 225 251 233 185 174 185 184 200 229 291 303 304 303 305 306 307 304 309 312 316 314 303 306
100 82 96 129 116 71 85 18 83 51 103 104 98 77 77 41 99 56 107 132 244 218 235 208 195 186 300 262 251 279 280 288 295 298 297 300 304 301 303 315 319 313 311 309
82 79 102 96 66 75 100 127 110 126 123 101 61 104 92 124 109 137 190 169 222 238 204 201 194 213 237 259 268 279 289 293 293 292 293 296 299 300 304 309 311 319 321 312
68 64 77 103 99 151 185 176 133 151 95 118 116 115 182 97 84 227 190 209 218 195 207 205 213 224 257 271 283 290 294 292 293 297 298 298 306 313 310 301 313 312 315 312